Weather History for Culpeper, VA

Change the Weather History Date:

Thursday, December 8, 2011

  Actual Average (KOMH) Record (KOMH)
Temperature  
Mean Temperature 39 °F -  
Max Temperature 48 °F 48 °F 69 °F (1956)
Min Temperature 30 °F 30 °F 10 °F (1970)
Degree Days  
Heating Degree Days 26    
Moisture  
Dew Point 28 °F    
Average Humidity 64    
Maximum Humidity 100    
Minimum Humidity 43    
Precipitation  
Precipitation 0.00 in - - ()
Sea Level Pressure  
Sea Level Pressure 30.21 in    
Wind  
Wind Speed 4 mph (WNW)    
Max Wind Speed 14 mph    
Max Gust Speed 23 mph    
Visibility 10 miles    
Events      
Averages and records for this station are not official NWS values.
T = Trace of Precipitation, MM = Missing Value Source: NWS Daily Summary

Daily Weather History Graph

Daily Weather History Graph

Search for Another Location

Airport:

Trip Planner

Search our weather history database for the weather conditions in past years. The results will help you decide how hot, cold, wet, or windy it might be!

Date:

Astronomy

Dec. 08, 2011 Rise Set
Actual Time 7:16 AM EST 4:50 PM EST
Civil Twilight 6:46 AM EST 5:19 PM EST
Nautical Twilight 6:13 AM EST 5:52 PM EST
Astronomical Twilight 5:41 AM EST 6:25 PM EST
Moon 3:28 PM EST (12/8) 5:26 AM EST (12/8)
Length of Visible Light 10h 33m
Length of Day
9h 34m
Waxing Gibbous, 97% of the Moon is Illuminated
Dec 8
Waxing Gibbous
Dec 10
Full
Dec 17
Last Quarter
Dec 24
New
Jan 1
First Quarter

Hourly Weather History & Observations

Time (EST) Temp. Windchill Dew Point Humidity Pressure Visibility Wind Dir Wind Speed Gust Speed Precip Events Conditions
12:15 AM 41.0 °F 39.0 °F 35.6 °F 81% 29.86 in 10.0 mi North 3.5 mph - N/A   Scattered Clouds
1:15 AM 42.8 °F 37.0 °F 30.2 °F 61% 29.90 in 10.0 mi NW 10.4 mph 18.4 mph N/A   Clear
1:55 AM 42.8 °F 38.6 °F 30.2 °F 61% 29.95 in 10.0 mi WNW 6.9 mph - N/A   Scattered Clouds
2:15 AM 42.8 °F 36.2 °F 30.2 °F 61% 29.96 in 10.0 mi WNW 12.7 mph 20.7 mph N/A   Mostly Cloudy
2:35 AM 41.0 °F 34.7 °F 30.2 °F 65% 29.98 in 10.0 mi WNW 10.4 mph 18.4 mph N/A   Scattered Clouds
2:55 AM 41.0 °F 37.1 °F 28.4 °F 61% 29.99 in 10.0 mi West 5.8 mph - N/A   Scattered Clouds
3:15 AM 39.2 °F 33.6 °F 26.6 °F 61% 30.01 in 10.0 mi WNW 8.1 mph 16.1 mph N/A   Clear
3:35 AM 39.2 °F 31.2 °F 24.8 °F 56% 30.01 in 10.0 mi NW 13.8 mph 23.0 mph N/A   Clear
3:55 AM 39.2 °F 32.5 °F 24.8 °F 56% 30.02 in 10.0 mi WNW 10.4 mph 17.3 mph N/A   Clear
4:15 AM 37.4 °F 33.8 °F 24.8 °F 60% 30.04 in 10.0 mi NW 4.6 mph - N/A   Clear
4:35 AM 35.6 °F - 26.6 °F 70% 30.06 in 10.0 mi Calm Calm - N/A   Clear
4:55 AM 37.4 °F 33.8 °F 24.8 °F 60% 30.08 in 10.0 mi NW 4.6 mph - N/A   Clear
5:15 AM 37.4 °F 34.9 °F 23.0 °F 56% 30.09 in 10.0 mi West 3.5 mph - N/A   Clear
5:35 AM 35.6 °F 32.8 °F 24.8 °F 65% 30.10 in 10.0 mi NW 3.5 mph - N/A   Clear
5:55 AM 37.4 °F - 23.0 °F 56% 30.11 in 10.0 mi Calm Calm - N/A   Clear
6:15 AM 37.4 °F - 23.0 °F 56% 30.13 in 10.0 mi Calm Calm - N/A   Clear
6:55 AM 35.6 °F 31.7 °F 23.0 °F 60% 30.16 in 10.0 mi West 4.6 mph - N/A   Clear
7:15 AM 33.8 °F - 26.6 °F 75% 30.18 in 10.0 mi Calm Calm - N/A   Clear
7:35 AM 32.0 °F - 26.6 °F 80% 30.19 in 10.0 mi Calm Calm - N/A   Clear
8:15 AM 35.6 °F 31.7 °F 26.6 °F 70% 30.20 in 10.0 mi WNW 4.6 mph - N/A   Clear
8:35 AM 39.2 °F 37.0 °F 24.8 °F 56% 30.20 in 10.0 mi NNW 3.5 mph - N/A   Clear
8:55 AM 39.2 °F - 23.0 °F 52% 30.21 in 10.0 mi Calm Calm - N/A   Clear
9:15 AM 39.2 °F 37.0 °F 24.8 °F 56% 30.22 in 10.0 mi North 3.5 mph - N/A   Clear
9:35 AM 41.0 °F 38.0 °F 24.8 °F 53% 30.24 in 10.0 mi North 4.6 mph - N/A   Clear
9:55 AM 41.0 °F 39.0 °F 24.8 °F 53% 30.24 in 10.0 mi ENE 3.5 mph - N/A   Clear
10:15 AM 41.0 °F 39.0 °F 24.8 °F 53% 30.25 in 10.0 mi NNE 3.5 mph - N/A   Clear
10:35 AM 42.8 °F - 24.8 °F 49% 30.27 in 10.0 mi Calm Calm - N/A   Clear
10:55 AM 42.8 °F - 24.8 °F 49% 30.27 in 10.0 mi Calm Calm - N/A   Clear
11:15 AM 42.8 °F 40.1 °F 26.6 °F 53% 30.27 in 10.0 mi West 4.6 mph - N/A   Clear
11:35 AM 42.8 °F - 26.6 °F 53% 30.27 in 10.0 mi Calm Calm - N/A   Clear
11:55 AM 44.6 °F 40.7 °F 26.6 °F 49% 30.26 in 10.0 mi SW 6.9 mph - N/A   Clear
12:15 PM 44.6 °F 42.2 °F 26.6 °F 49% 30.26 in 10.0 mi WSW 4.6 mph - N/A   Clear
12:35 PM 44.6 °F 40.7 °F 26.6 °F 49% 30.26 in 10.0 mi WSW 6.9 mph 10.4 mph N/A   Clear
12:55 PM 46.4 °F 42.9 °F 26.6 °F 46% 30.26 in 10.0 mi WSW 6.9 mph - N/A   Clear
1:15 PM 46.4 °F 43.5 °F 26.6 °F 46% 30.25 in 10.0 mi WSW 5.8 mph - N/A   Clear
1:35 PM 46.4 °F 44.3 °F 26.6 °F 46% 30.25 in 10.0 mi WSW 4.6 mph - N/A   Clear
1:55 PM 46.4 °F 42.9 °F 26.6 °F 46% 30.25 in 10.0 mi West 6.9 mph - N/A   Clear
2:15 PM 48.2 °F - 26.6 °F 43% 30.25 in 10.0 mi South 3.5 mph - N/A   Clear
2:35 PM 48.2 °F - 26.6 °F 43% 30.26 in 10.0 mi WSW 5.8 mph - N/A   Clear
2:55 PM 48.2 °F - 26.6 °F 43% 30.26 in 10.0 mi West 3.5 mph - N/A   Clear
3:15 PM 48.2 °F - 26.6 °F 43% 30.27 in 10.0 mi Calm Calm - N/A   Clear
3:35 PM 48.2 °F - 26.6 °F 43% 30.28 in 10.0 mi Calm Calm - N/A   Clear
3:55 PM 48.2 °F - 26.6 °F 43% 30.28 in 10.0 mi Calm Calm - N/A   Clear
4:15 PM 46.4 °F - 26.6 °F 46% 30.28 in 10.0 mi Calm Calm - N/A   Clear
4:35 PM 44.6 °F - 30.2 °F 57% 30.29 in 10.0 mi Calm Calm - N/A   Clear
4:55 PM 42.8 °F - 32.0 °F 66% 30.29 in 10.0 mi Calm Calm - N/A   Clear
5:15 PM 39.2 °F - 30.2 °F 70% 30.30 in 10.0 mi Calm Calm - N/A   Clear
5:35 PM 37.4 °F - 30.2 °F 75% 30.31 in 10.0 mi Calm Calm - N/A   Clear
5:55 PM 37.4 °F - 30.2 °F 75% 30.31 in 10.0 mi Calm Calm - N/A   Clear
6:15 PM 35.6 °F - 30.2 °F 81% 30.31 in 10.0 mi Calm Calm - N/A   Clear
6:35 PM 35.6 °F - 32.0 °F 87% 30.31 in 10.0 mi Calm Calm - N/A   Clear
6:55 PM 35.6 °F - 32.0 °F 87% 30.32 in 10.0 mi Calm Calm - N/A   Clear
7:15 PM 33.8 °F - 30.2 °F 87% 30.32 in 10.0 mi Calm Calm - N/A   Clear
7:35 PM 33.8 °F 30.8 °F 30.2 °F 87% 30.32 in 10.0 mi NNE 3.5 mph - N/A   Clear
7:55 PM 33.8 °F - 30.2 °F 87% 30.33 in 10.0 mi Calm Calm - N/A   Clear
8:15 PM 33.8 °F - 30.2 °F 87% 30.33 in 10.0 mi Calm Calm - N/A   Clear
8:35 PM 33.8 °F - 30.2 °F 87% 30.33 in 10.0 mi Calm Calm - N/A   Clear
8:55 PM 32.0 °F - 30.2 °F 93% 30.33 in 10.0 mi Calm Calm - N/A   Clear
9:15 PM 32.0 °F - 30.2 °F 93% 30.33 in 10.0 mi Calm Calm - N/A   Clear
9:35 PM 30.2 °F - 30.2 °F 100% 30.34 in 10.0 mi Calm Calm - N/A   Clear
9:55 PM 30.2 °F - 30.2 °F 100% 30.34 in 10.0 mi Calm Calm - N/A   Clear
10:15 PM 30.2 °F - 30.2 °F 100% 30.35 in 10.0 mi Calm Calm - N/A   Clear
10:35 PM 30.2 °F - 30.2 °F 100% 30.35 in 10.0 mi Calm Calm - N/A   Clear
10:55 PM 30.2 °F - 30.2 °F 100% 30.35 in 10.0 mi Calm Calm - N/A   Clear
11:15 PM 30.2 °F - 30.2 °F 100% 30.34 in 10.0 mi Calm Calm - N/A   Clear
11:35 PM 30.2 °F - 30.2 °F 100% 30.34 in 10.0 mi Calm Calm - N/A   Clear
11:55 PM 30.2 °F - 28.4 °F 93% 30.33 in 10.0 mi Calm Calm - N/A   Clear